Flag for U.S.A. Weather past 2 weeks in Dallas, Texas, U.S.A.

Now
79 °F

Partly cloudy.


Feels Like: 82 °F
Forecast: 78 / 92 °F
Wind: 5 mph from Southwest

Location: Dallas Love Field

Current Time: Jul 4, 2015 at 7:47:46 AM

Latest Report: Jul 4, 2015 at 6:53 AM


Visibility: 10 mi

Pressure: 29.94 "Hg

Humidity: 77%

Dew point: 71 °F

Location of DallasLocation

Historic Weather in Dallas — Graph

°F

Dallas temperature yesterday

Maximum temperature yesterday: 91 °F (at 2:53 PM)
Minimum temperature yesterday: 80 °F (at 5:53 AM)
Average temperature yesterday: 85 °F

Past Weeks' High & Low Weather Summary

 TemperatureHumidityPressure
High96 °F (Jun 29, 5:53 PM)91% (Jun 21, 7:53 AM)30.16 "Hg (Jun 21, 7:53 AM)
Low71 °F (Jun 28, 4:53 AM)26% (Jun 28, 6:53 PM)29.85 "Hg (Jul 2, 7:53 PM)
Average85 °F62%29.98 "Hg
* Reported Jun 19 5:53 AM — Jul 4 5:53 AM, Dallas, Weather by CustomWeather, © 2015

Note: Actual official high and low records may vary slightly from our data, if they occured in-between our weather recording intervals... More about our weather records

Advertising

Dallas weather history for previous 24 hours

 ConditionsComfort  
Time TempWeatherWind HumidityBarometerVisibility
5:53 AM
Sat, Jul 4
80 °FPartly cloudy.5 mph74%29.93 "Hg10 mi
4:53 AM80 °FPassing clouds.5 mph76%29.91 "Hg10 mi
3:53 AM81 °FPassing clouds.8 mph74%29.91 "Hg10 mi
2:53 AM83 °FPassing clouds.10 mph68%29.91 "Hg10 mi
1:53 AM83 °FPassing clouds.7 mph68%29.91 "Hg10 mi
12:53 AM83 °FPartly cloudy.9 mph65%29.91 "Hg10 mi
11:53 PM
Fri, Jul 3
85 °FPartly cloudy.9 mph59%29.90 "Hg10 mi
10:53 PM86 °FPassing clouds.7 mph55%29.90 "Hg10 mi
9:53 PM87 °FPartly cloudy.7 mph53%29.89 "Hg10 mi
8:53 PM88 °FPartly sunny.5 mph50%29.87 "Hg10 mi
7:53 PM89 °FPartly sunny.9 mph48%29.86 "Hg10 mi
6:53 PM90 °FBroken clouds.10 mph48%29.87 "Hg10 mi
5:53 PM88 °FCloudy.8 mph57%29.87 "Hg10 mi
4:53 PM90 °FCloudy.9 mph50%29.89 "Hg10 mi
3:53 PM91 °FBroken clouds.7 mph47%29.90 "Hg10 mi
2:53 PM91 °FCloudy.10 mph47%29.91 "Hg10 mi
1:53 PM89 °FMostly cloudy.9 mph52%29.93 "Hg10 mi
12:53 PM87 °FBroken clouds.12 mph57%29.95 "Hg10 mi
11:53 AM87 °FBroken clouds.14 mph59%29.95 "Hg10 mi
10:53 AM84 °FCloudy.10 mph65%29.95 "Hg10 mi
9:53 AM82 °FMostly cloudy.10 mph70%29.96 "Hg10 mi
9:04 AM81 °FCloudy.12 mph74%29.98 "Hg10 mi
8:53 AM80 °FMostly cloudy.9 mph76%29.95 "Hg10 mi
7:53 AM80 °FPartly sunny.12 mph76%29.94 "Hg10 mi
Weather by CustomWeather, © 2015

See weather overviewHow to use our weather pages